Location: Gettysburg
(39.8310°N, 77.2310°W)
Time: 12:47:33
(UTC-04:00)

ATLAS 2AS CENTAUR R/B - Visible Passes

Search period start: 30 June 2015 00:00
Search period end: 10 July 2015 00:00
Orbit: 912 x 1300 km, 63.7° (Epoch: 24 June)

Date Brightness Start Highest point End Pass type
(mag) Time Alt. Az. Time Alt. Az. Time Alt. Az.
30 Jun 3.2 21:46:29 10° NW 21:54:36 74° WSW 22:01:30 14° SSE visible
30 Jun 5.0 23:40:36 10° WNW 23:44:31 14° WSW 23:47:47 10° SW visible
01 Jul 3.2 21:01:38 10° NNW 21:09:48 77° NE 21:17:34 10° SE visible
01 Jul 4.6 22:54:00 10° WNW 23:00:09 24° WSW 23:05:48 10° SSW visible
02 Jul 4.1 22:08:24 10° NW 22:15:43 38° WSW 22:22:33 10° S visible
03 Jul 3.6 21:23:13 10° NW 21:31:09 58° WSW 21:38:37 10° SSE visible
04 Jul 5.0 22:31:29 10° WNW 22:36:32 17° WSW 22:41:01 10° SW visible
05 Jul 4.6 21:45:26 10° NW 21:52:09 29° WSW 21:58:22 10° SSW visible
06 Jul 4.0 21:00:03 10° NW 21:07:39 45° WSW 21:14:48 10° S visible
07 Jul 5.3 22:09:45 10° W 22:12:53 12° WSW 22:15:21 10° WSW visible
08 Jul 5.1 21:22:41 10° WNW 21:28:33 22° WSW 21:33:52 10° SSW visible
